Вернуться в каталог

STARLINK-36536

АктивенСвязьVLEO
NORAD 69510·PAYLOAD·🇺🇸 United States

Запущен Jun 12, 2026 с Cape Canaveral Space Force Station

Loading…

Ближайшие Пролёты (ближайшие 24 часа)

TLE

СвежийSource: CelesTrak SupGP

Эпоха: Sep 15, 2026, 04:19 UTC

1 69510C 26133C   26258.18034722 -.00054431  00000+0 -16082-2 0  2581
2 69510  53.1567 254.8061 0001332  90.1136 293.1027 15.34417141    11

Отслеживайте STARLINK-36536 в реальном времени с AllMySat

Download on the App Store